Location: Bright Sky Observatory
(40.7821°N, 74.2425°W)
Time: 22:58:22
(UTC-04:00)

Daily predictions for brighter satellites

Satellite Brightness Start Highest point End
(mag) Time Altitude Azimuth Time Altitude Azimuth Time Altitude Azimuth
ERS-1 Rocket 3.2 20:44:18 10° SSE 20:49:11 54° ENE 20:54:06 10° N
Cosmos 1869 Rocket 4.1 20:46:10 10° SSW 20:50:33 66° W 20:54:55 10° N
H-2A R/B 2.9 20:48:04 10° SE 20:51:58 33° ENE 20:55:49 10° N
Cosmos 1356 Rocket 3.9 20:49:27 10° SSE 20:53:22 40° E 20:57:24 10° NNE
ALOS 3.2 20:51:54 10° S 20:56:27 52° W 21:01:02 10° NNW
Resurs 01 Rocket 4.3 20:53:52 10° SW 20:56:53 18° W 20:59:54 10° NW
Cosmos 389 Rocket 4.3 20:54:35 10° NNW 20:57:44 32° W 21:00:52 10° SSW
ATLAS 5 CENTAUR R/B 2.9 20:53:18 10° NNW 20:59:05 49° NE 21:05:15 10° SE
USA 234 4.3 21:00:14 10° ENE 21:05:03 22° ESE 21:09:50 10° S
Cosmos 2278 Rocket 3.8 21:02:20 10° SE 21:05:10 14° E 21:07:59 10° ENE
PSLV R/B 3.3 21:07:04 10° W 21:10:32 87° S 21:13:55 11° E
Meteor 2-3 Rocket 3.9 21:07:09 10° SSW 21:12:47 78° W 21:18:24 10° N
Okean 1-7 4.0 21:09:28 10° NNW 21:13:35 47° W 21:17:43 10° SSW
Abrixas rocket 2.6 21:10:47 10° WNW 21:14:10 59° SW 21:16:55 14° SE
CZ-4 DEB 3.9 21:13:22 10° S 21:16:24 43° W 21:19:28 10° NNW
Cosmos 1844 Rocket 3.1 21:13:16 10° S 21:18:29 39° ESE 21:23:42 10° NE
Cosmos 2056 Rocket 3.5 21:13:38 10° S 21:18:42 59° ESE 21:23:45 10° NNE
Meteor 1-27 Rocket 4.4 21:14:52 10° N 21:20:00 36° ENE 21:24:14 14° SE
Cosmos 1371 Rocket 4.0 21:15:20 10° SSW 21:20:39 84° ESE 21:25:59 10° NNE
Cosmos 1674 Rocket 3.9 21:16:38 10° N 21:20:59 50° E 21:24:53 12° SSE
Cosmos 1825 3.8 21:19:37 14° ESE 21:21:18 19° E 21:24:00 10° NE
Cosmos 1340 Rocket 3.5 21:19:02 10° SSW 21:22:56 56° WNW 21:26:54 10° N
Cosmos 2082 Rocket 4.5 21:21:49 10° NNE 21:23:12 11° NE 21:24:35 10° ENE
Cosmos 1939 Rocket 2.8 21:21:56 10° SSE 21:25:47 86° WSW 21:29:42 10° NNW
Cosmos 1461 4.1 21:21:35 10° SW 21:26:09 53° NW 21:30:37 10° NNE
Atlas Centaur 2 2.8 21:26:16 10° SSW 21:28:33 16° S 21:29:20 15° SSE
Cosmos 1782 2.9 21:25:40 10° N 21:29:39 60° E 21:32:54 15° SSE
Cosmos 2263 Rocket 4.0 21:28:12 10° WSW 21:33:21 35° WNW 21:38:30 10° N
CENTAUR R/B 3.2 21:28:17 10° NW 21:36:12 79° WSW 21:43:29 14° SSE
COSMOS 2487 4.5 21:35:56 10° NNE 21:38:21 17° ENE 21:39:40 14° E
MetOp-A 4.2 21:35:01 15° SSE 21:39:25 65° ENE 21:44:43 10° N
Cosmos 2154 Rocket 4.1 21:33:42 10° SSE 21:39:45 56° E 21:45:48 10° NNE
SL-27 R/B 2.5 21:36:49 10° NNW 21:40:29 67° ENE 21:42:35 23° SSE
YAOGAN 6 2.8 21:40:07 23° SE 21:41:59 48° ENE 21:45:24 10° N
SL-8 R/B 3.6 21:37:31 10° WSW 21:42:21 86° SSE 21:47:11 10° ENE
Cosmos 1408 3.4 21:40:58 23° SE 21:42:24 31° E 21:45:41 10° NNE
NOSS 2-2 (D) 3.6 21:40:03 10° SW 21:44:09 81° NW 21:48:55 10° NNE
Coronas F rocket 3.3 21:42:46 10° SW 21:45:08 29° WNW 21:47:31 10° NNW
Cosmos 2184 Rocket 4.4 21:40:55 10° SSW 21:47:00 65° W 21:53:10 10° N
deb Chang Zheng 4 4.2 21:43:33 10° N 21:47:54 60° WNW 21:52:15 10° SSW
COS B Rocket 3.3 21:43:57 10° N 21:48:13 69° E 21:50:52 20° S
Cosmos 1975 Rocket 4.0 21:44:42 10° NNE 21:48:34 31° ENE 21:50:14 23° ESE
Cosmos 1606 2.7 21:48:20 10° N 21:52:16 66° E 21:54:20 26° SSE
Okean 3 3.9 21:51:47 10° N 21:55:55 44° ENE 21:57:39 29° SE
Cosmos 1908 Rocket 3.5 21:53:55 15° S 21:57:34 78° E 22:02:00 10° N
H-2A R/B 3.2 21:56:03 21° ESE 21:58:38 30° ENE 22:03:15 10° N
NOSS 2-2 (C) 4.2 21:54:50 10° SW 21:58:53 58° NW 22:03:37 10° NNE
Envisat 3.8 21:54:08 10° S 21:59:03 50° W 22:03:59 10° NNW
USA 245 2.9 21:58:30 41° SE 21:59:16 56° ENE 22:02:43 10° N
Cosmos 1242 Rocket 3.7 21:59:34 10° NNE 22:02:44 27° ENE 22:03:15 26° E
Cosmos 1733 Rocket 4.5 21:59:39 10° SSW 22:03:47 38° WNW 22:07:56 10° N
Cosmos 1378 Rocket 3.4 22:01:43 10° N 22:06:02 77° E 22:08:06 30° SSE
CZ-4 SHROUD 3.9 22:08:15 29° SSW 22:09:31 50° W 22:12:33 10° NNW
TIMED 4.4 22:06:09 15° SSW 22:09:42 77° ESE 22:14:05 10° NNE
Intercosmos 25 3.5 22:12:07 40° SE 22:12:48 45° E 22:15:58 10° NNE
SPOT 1/Viking Rocket 3.5 22:10:27 26° SSE 22:13:27 88° ENE 22:18:42 10° NNW
ERBS 3.1 22:12:37 10° WNW 22:15:55 41° SW 22:16:36 36° SSW
Cosmos 407 Rocket 3.8 22:13:41 10° NNW 22:18:54 65° WSW 22:21:52 26° S
Cosmos 1238 Rocket 2.4 22:18:12 10° N 22:21:17 74° W 22:21:59 51° SSW
Cosmos 1452 Rocket 3.5 22:16:44 10° SSW 22:22:00 87° WNW 22:27:19 10° NNE
Landsat 7 4.0 22:21:42 37° SE 22:23:16 56° ENE 22:27:57 10° N
SPOT 5 4.1 22:19:21 14° SSW 22:23:30 42° W 22:28:34 10° NNW
COSMOS 2406 4.4 22:21:55 10° NW 22:27:06 35° WSW 22:30:59 16° SSW
H-2A R/B 4.2 22:24:43 10° SW 22:28:02 21° W 22:31:19 10° NW
Cosmos 2084 3.0 22:32:17 65° SE 22:32:29 67° ESE 22:36:18 10° NE
BREEZE-M TANK 4.2 22:17:44 10° W 22:32:30 59° N 22:35:56 13° ENE
Cosmos 2218 Rocket 4.1 22:32:39 34° SSE 22:35:25 60° E 22:41:42 10° NNE
Cosmos 1140 Rocket 3.5 22:30:58 10° NNW 22:36:06 68° ENE 22:37:36 45° SE
Cosmos 1862 4.5 22:33:23 17° SW 22:36:13 42° WNW 22:40:07 10° N
Terra 2.0 22:37:58 45° ESE 22:39:02 57° ENE 22:43:42 10° N
ARGOS 3.5 22:38:34 30° S 22:41:11 60° W 22:46:30 10° NNW
DMSP B5D2-2 4.2 22:36:55 10° NNE 22:42:03 55° E 22:43:07 46° SE
ATLAS 5 CENTAUR R/B 3.6 22:38:19 10° NW 22:43:42 33° WSW 22:46:55 21° SSW
DELTA 2 DEB (DPAF) 4.0 22:42:45 55° SSE 22:43:44 90° E 22:48:15 10° NNW
Okean 2 Rocket 3.3 22:42:45 34° SSW 22:44:35 66° W 22:48:59 10° N
Cosmos 2278 Rocket 2.3 22:43:31 14° SSW 22:48:28 77° WNW 22:54:11 10° NNE
USA 234 3.1 22:42:01 10° NE 22:48:35 87° SE 22:55:07 10° SW
CZ-4B R/B 4.4 22:46:06 10° N 22:50:51 45° WNW 22:54:54 13° SW
Cosmos 1727 Rocket 4.1 22:47:38 10° N 22:53:45 60° E 22:55:26 45° SE
CZ-4C R/B 3.3 22:54:26 65° WSW 22:54:38 66° W 22:58:35 10° NNW
Cosmos 1833 Rocket 3.5 22:50:38 10° N 22:55:54 39° ENE 22:57:19 33° E
Cosmos 1850 Rocket 4.0 22:50:56 10° NNW 22:56:16 78° ENE 22:57:23 56° SE
Cosmos 1825 4.1 22:54:30 16° WSW 22:56:44 26° WNW 23:00:00 10° NNW
Cosmos 1959 Rocket 4.4 22:58:49 38° S 23:01:23 86° W 23:07:32 10° N
Cosmos 1844 Rocket 4.5 22:57:29 10° WSW 23:02:26 30° WNW 23:07:24 10° N
Timation 2 Rocket 3.8 22:57:45 10° NNW 23:03:47 88° WSW 23:05:20 53° SSE
Cosmos 1812 3.8 23:01:56 10° N 23:04:51 36° NE 23:04:51 36° NE
Cosmos 2082 Rocket 2.3 23:02:51 10° NNW 23:08:32 62° ENE 23:09:37 52° ESE
COSMOS 2487 4.1 23:10:52 10° NW 23:13:44 28° W 23:13:44 28° W
Cosmos 1741 Rocket 3.9 23:08:54 10° NNW 23:14:08 76° WSW 23:14:51 64° SSW
IGS 5A 3.8 23:17:59 58° W 23:17:59 58° W 23:22:03 10° NNW
Cosmos 2297 3.7 23:16:56 46° SSW 23:18:43 85° WNW 23:24:29 10° NNE
DNEPR-1 R/B 3.7 23:15:10 10° NW 23:20:31 75° WSW 23:20:38 74° SW
APEX 3.8 23:22:47 59° WNW 23:22:57 60° WNW 23:27:43 10° NNE
Cosmos 1339 Rocket 4.4 23:17:56 10° N 23:24:06 86° E 23:25:21 60° SSE
CARTOSAT-1 4.5 23:27:44 39° WSW 23:27:51 39° W 23:31:55 10° NNW
Cosmos 1821 Rocket 4.5 23:31:30 42° E 23:31:51 42° E 23:37:42 10° NNE
Cosmos 1331 Rocket 4.3 23:33:49 51° ENE 23:33:49 51° ENE 23:38:09 10° NNE
USA 229 DEB 3.8 23:26:45 10° NNW 23:33:53 75° NE 23:35:48 51° SE
USA 229 3.8 23:26:51 10° NNW 23:33:59 74° NE 23:35:55 51° ESE
Cosmos 1110 Rocket 4.0 23:36:09 66° ENE 23:36:09 66° ENE 23:41:00 10° NNE
H-2A R/B 3.2 23:36:42 32° SW 23:37:54 35° W 23:42:49 10° NNW
Cosmos 1536 Rocket 4.2 23:34:51 10° NNW 23:39:02 48° W 23:39:02 48° W
Okean 1 4.0 23:35:35 10° N 23:38:43 52° N 23:38:43 52° N
Iridium 4 Rocket 3.9 23:43:39 10° N 23:49:24 60° E 23:49:35 59° E
Cosmos 1934 Rocket 4.2 23:52:21 50° E 23:52:22 50° E 23:58:11 10° NNE
